Home   Weather   Nadi   Past weeks

Flag for Fiji Past Weather in Nadi, Fiji — Yesterday and Last 2 Weeks

Now
79 °F

Sunny.


Feels Like: 81 °F
Forecast: 75 / 86 °F
Wind: 7 mph from East

Location: Nandi

Current Time: Oct 1, 2016 at 8:24:17 AM

Latest Report: Oct 1, 2016 at 8:00 AM


Visibility: 10 mi

Pressure: 29.95 "Hg

Humidity: 74%

Dew Point: 70 °F

Location of NadiLocation

Past Weather in Nadi — Graph

°F

Nadi Temperature Yesterday

Maximum temperature yesterday: 90 °F (at 2:00 PM)
Minimum temperature yesterday: 70 °F (at 5:00 AM)
Average temperature yesterday: 79 °F

High & Low Weather Summary for the Past Weeks

 TemperatureHumidityPressure
High90 °F (Sep 30, 2:00 PM)100% (Sep 26, 6:00 AM)30.07 "Hg (Sep 26, 6:00 AM)
Low63 °F (Sep 17, 5:00 AM)43% (Sep 28, 4:00 PM)29.77 "Hg (Sep 28, 3:00 AM)
Average76 °F74%29.90 "Hg
* Reported Sep 16 7:00 AM — Oct 1 7:00 AM, Nadi, Weather by CustomWeather, © 2016

Note: Actual official high and low records may vary slightly from our data, if they occured in-between our weather recording intervals... More about our weather records

Advertising

Nadi Weather History for the Previous 24 Hours

Scroll right to see more
 ConditionsComfort  
Time TempWeatherWind HumidityBarometerVisibility
7:00 AM
Sat, Oct 1
73 °FSunny.3 mph83%29.95 "Hg10 mi
6:00 AM72 °FPassing clouds.5 mph88%29.95 "HgN/A
5:00 AM72 °FPassing clouds.5 mph88%29.92 "HgN/A
4:00 AM72 °FPassing clouds.5 mph88%29.92 "HgN/A
3:00 AM72 °FPassing clouds.5 mph94%29.92 "HgN/A
2:00 AM72 °FPassing clouds.5 mph94%29.92 "HgN/A
1:00 AM73 °FPassing clouds.2 mph89%29.92 "HgN/A
12:00 AM73 °FPassing clouds.2 mph89%29.95 "HgN/A
11:00 PM
Fri, Sep 30
75 °FPassing clouds.5 mph83%29.95 "HgN/A
10:00 PM75 °FPassing clouds.5 mph83%29.95 "HgN/A
9:00 PM77 °FPassing clouds.7 mph79%29.95 "HgN/A
8:00 PM77 °FPassing clouds.8 mph79%29.92 "HgN/A
7:00 PM79 °FPassing clouds.9 mph70%29.89 "HgN/A
6:00 PM82 °FPassing clouds.10 mph62%29.89 "HgN/A
5:00 PM86 °FPassing clouds.10 mph52%29.86 "HgN/A
4:00 PM88 °FPassing clouds.13 mph49%29.83 "HgN/A
3:00 PM90 °FScattered clouds.12 mph49%29.83 "HgN/A
2:00 PM90 °FPassing clouds.13 mph55%29.86 "HgN/A
1:00 PM86 °FPassing clouds.12 mph59%29.89 "HgN/A
12:00 PM84 °FPassing clouds.10 mph66%29.89 "HgN/A
11:00 AM86 °FPassing clouds.9 mph55%29.92 "HgN/A
10:00 AM84 °FPassing clouds.6 mph62%29.92 "HgN/A
9:00 AM81 °FSunny.3 mph70%29.95 "Hg10 mi
8:00 AM79 °FPassing clouds.5 mph79%29.95 "HgN/A
Weather by CustomWeather, © 2016

See weather overviewHow to use our weather pages